BEE282 EGNS-EGLC

Flight info

Callsign BEE282
Flight time N/A
Altitude 19000
Route TIMIS Q39 NOMSU Q4 WAL L10 HON
Aircraft DH8D/M-SDE2E3FGRY/H

Departure

Time N/A
Airport Isle of Man Airport (EGNS)

Arrival

Time 2026-05-04 10:02
Airport London City Airport (EGLC)
Time Latitude Longitude Altitude Speed Heading
2026-05-04 09:49 51.51753 0.69285 3524 ft 251 kts 251°
2026-05-04 09:49 51.51164 0.66622 3451 ft 251 kts 252°
2026-05-04 09:49 51.50583 0.63986 3375 ft 252 kts 252°
2026-05-04 09:51 51.47123 0.48430 2979 ft 240 kts 252°
2026-05-04 09:51 51.46556 0.45884 2971 ft 237 kts 252°
2026-05-04 09:51 51.46004 0.43414 2969 ft 235 kts 252°
2026-05-04 09:51 51.45462 0.40982 2970 ft 233 kts 252°
2026-05-04 09:52 51.44913 0.38531 2966 ft 232 kts 252°
2026-05-04 09:52 51.44367 0.36092 2967 ft 231 kts 252°
2026-05-04 09:52 51.43830 0.33697 2968 ft 229 kts 251°
2026-05-04 09:52 51.43296 0.31307 2969 ft 226 kts 252°
2026-05-04 09:53 51.43050 0.28858 2970 ft 223 kts 272°
2026-05-04 09:53 51.43128 0.26378 2974 ft 222 kts 275°
2026-05-04 09:53 51.43223 0.23886 2975 ft 222 kts 275°
2026-05-04 09:53 51.43315 0.21420 2976 ft 222 kts 275°
2026-05-04 09:54 51.43406 0.18951 2975 ft 222 kts 275°
2026-05-04 09:54 51.43494 0.16496 2974 ft 222 kts 275°
2026-05-04 09:54 51.43579 0.14031 2871 ft 228 kts 275°
2026-05-04 09:54 51.43671 0.11383 2539 ft 242 kts 275°
2026-05-04 09:55 51.43763 0.08651 2279 ft 249 kts 275°
2026-05-04 09:55 51.43854 0.05867 2078 ft 252 kts 275°
2026-05-04 09:55 51.43944 0.03054 2007 ft 250 kts 275°
2026-05-04 09:55 51.44030 0.00306 1983 ft 246 kts 275°
2026-05-04 09:56 51.44113 -0.02391 1975 ft 242 kts 275°
2026-05-04 09:56 51.44196 -0.05072 1973 ft 239 kts 275°
2026-05-04 09:56 51.44318 -0.07690 1966 ft 235 kts 282°
2026-05-04 09:56 51.45087 -0.09876 1957 ft 215 kts 323°
2026-05-04 09:57 51.46346 -0.10793 1975 ft 188 kts 345°
2026-05-04 09:57 51.47555 -0.11346 1969 ft 174 kts 346°
2026-05-04 09:57 51.48709 -0.11654 1965 ft 164 kts
2026-05-04 09:57 51.49601 -0.10758 1967 ft 149 kts 50°
2026-05-04 09:58 51.49938 -0.10074 1965 ft 144 kts 50°
2026-05-04 09:58 51.50554 -0.08856 1983 ft 136 kts 50°
2026-05-04 09:58 51.51007 -0.07538 1988 ft 135 kts 72°
2026-05-04 10:00 51.50619 0.02552 460 ft 130 kts 90°
2026-05-04 10:00 51.50571 0.03982 146 ft 129 kts 91°
2026-05-04 10:02 51.50438 0.05515 26 ft 18 kts 274°